Tracking 30743 objects as of 21-Jun-2025
HD Live streaming from Space Station
objects crossing your sky now

PEGASUS DEB

Track PEGASUS DEB now!
10-day predictions


NORAD ID: 24378
Int'l Code: 1994-029QF
Perigee: 592.4 km
Apogee: 820.4 km
Inclination: 82.0 °
Period: 98.8 minutes
Semi major axis: 7077 km
RCS: 0.0424 m2 (small)
Launch date: May 19, 1994
Source: United States (US)
Launch site: AIR FORCE WESTERN TEST RANGE (AFWTR)

Note: This is SATELLITE DEBRIS
Your satellite tracking list
Your tracking list is empty




NASA's NSSDC Master Catalog

Two Line Element Set (TLE):
1 24378U 94029QF  25170.18739644  .00000706  00000-0  12476-3 0  9991
2 24378  82.0275 238.1421 0161124 258.5522  99.7545 14.58120211645745
Source of the keplerian elements: AFSPC